Powrót do katalogu

STARLINK-36539

AktywnyŁącznośćVLEO
NORAD 67446·PAYLOAD·🇺🇸 United States

Wystrzelony Jan 14, 2026 z Cape Canaveral Space Force Station

Loading…

Następne Przeloty (najbliższe 24 godziny)

TLE

ŚwieżeSource: CelesTrak SupGP

Epoka: Sep 14, 2026, 23:14 UTC

1 67446C 26008B   26257.96854167 -.00011645  00000+0 -42145-3 0  2575
2 67446  43.0007 216.7514 0001619 265.8812 127.6808 15.27609288    19

Śledź STARLINK-36539 w czasie rzeczywistym z AllMySat

Download on the App Store